KLM567 EHAM-HTKJ

Flight info

Callsign KLM567
Flight time N/A
Altitude 35000
Route EDUPO Z739 MISGO DCT ASBON DCT TUSUK DCT ULNOK L607 ABUKA DCT TEDGO DCT UTABA DCT BEMKI DCT ELMEM DCT GIRIS DCT NIVAS DCT PEVAL DCT SPL DCT VAKSU DCT RODON DCT DIMIS UL604 SALUN N705 BOPIX/N0493F370 N710 TAKRI P751 LXR M999 JDW G650 RASKA/N0502F360 UG650 DULAB/N0496F380 UG650 KONET UM308 RUDOL/N0493F390 UM308 LOTAS DCT GETOM DCT APDIK APDIK2A
Aircraft B78X/H-SDE1E2E3FGHIJ2J3J4J5M1RWXY/LB1D1

Departure

Time 2026-05-06 19:25
Airport Amsterdam Airport Schiphol (EHAM)

Arrival

Time N/A
Airport Kilimanjaro International Airport (HTKJ)
Time Latitude Longitude Altitude Speed Heading
2026-05-06 18:40 52.31028 4.76610 18 ft 0 kts 304°
2026-05-06 19:08 52.31024 4.76619 19 ft 2 kts 302°
2026-05-06 19:08 52.31015 4.76647 19 ft 3 kts 293°
2026-05-06 19:08 52.31008 4.76677 19 ft 3 kts 282°
2026-05-06 19:08 52.31006 4.76708 19 ft 3 kts 270°
2026-05-06 19:09 52.31007 4.76740 19 ft 3 kts 258°
2026-05-06 19:09 52.31012 4.76770 19 ft 3 kts 245°
2026-05-06 19:09 52.31022 4.76797 19 ft 3 kts 230°
2026-05-06 19:09 52.31035 4.76819 19 ft 3 kts 215°
2026-05-06 19:10 52.31051 4.76836 19 ft 3 kts 218°
2026-05-06 19:10 52.31066 4.76857 19 ft 3 kts 230°
2026-05-06 19:10 52.31077 4.76883 19 ft 3 kts 244°
2026-05-06 19:10 52.31084 4.76912 19 ft 3 kts 257°
2026-05-06 19:11 52.31086 4.76944 19 ft 3 kts 268°
2026-05-06 19:11 52.31086 4.76977 19 ft 3 kts 275°
2026-05-06 19:11 52.31084 4.77009 19 ft 3 kts 277°
2026-05-06 19:11 52.31081 4.77042 19 ft 3 kts 273°
2026-05-06 19:12 52.31081 4.77050 19 ft 0 kts 272°
2026-05-06 19:12 52.31081 4.77049 18 ft 0 kts 272°
2026-05-06 19:14 52.31081 4.77041 18 ft 2 kts 272°
2026-05-06 19:14 52.31086 4.76993 18 ft 7 kts 287°
2026-05-06 19:14 52.31131 4.76934 18 ft 10 kts
2026-05-06 19:15 52.31197 4.76992 18 ft 11 kts 33°
2026-05-06 19:15 52.31259 4.77058 18 ft 10 kts 33°
2026-05-06 19:15 52.31312 4.77116 18 ft 9 kts 33°
2026-05-06 19:15 52.31362 4.77165 18 ft 8 kts 24°
2026-05-06 19:16 52.31420 4.77188 18 ft 9 kts
2026-05-06 19:16 52.31497 4.77198 18 ft 13 kts
2026-05-06 19:16 52.31564 4.77138 18 ft 11 kts 288°
2026-05-06 19:16 52.31565 4.77006 18 ft 12 kts 266°
2026-05-06 19:17 52.31559 4.76841 18 ft 17 kts 266°
2026-05-06 19:17 52.31552 4.76616 18 ft 21 kts 267°
2026-05-06 19:17 52.31544 4.76380 18 ft 20 kts 266°
2026-05-06 19:17 52.31536 4.76155 18 ft 19 kts 266°
2026-05-06 19:18 52.31529 4.75940 18 ft 19 kts 266°
2026-05-06 19:18 52.31522 4.75734 18 ft 18 kts 267°
2026-05-06 19:18 52.31515 4.75538 18 ft 16 kts 266°
2026-05-06 19:18 52.31509 4.75364 18 ft 14 kts 266°
2026-05-06 19:19 52.31503 4.75189 18 ft 17 kts 266°
2026-05-06 19:19 52.31498 4.75040 18 ft 22 kts 267°
2026-05-06 19:19 52.31488 4.74766 18 ft 25 kts 266°
2026-05-06 19:19 52.31478 4.74489 18 ft 24 kts 267°
2026-05-06 19:20 52.31472 4.74303 18 ft 16 kts 266°
2026-05-06 19:20 52.31421 4.74157 18 ft 15 kts 208°
2026-05-06 19:20 52.31322 4.74131 18 ft 14 kts 184°
2026-05-06 19:20 52.31222 4.74121 18 ft 14 kts 183°
2026-05-06 19:21 52.31122 4.74111 18 ft 15 kts 183°
2026-05-06 19:21 52.31012 4.74101 18 ft 16 kts 183°
2026-05-06 19:21 52.30893 4.74091 18 ft 18 kts 183°
2026-05-06 19:21 52.30765 4.74079 18 ft 19 kts 182°
2026-05-06 19:22 52.30632 4.74069 18 ft 19 kts 182°
2026-05-06 19:22 52.30508 4.74058 18 ft 17 kts 184°
2026-05-06 19:22 52.30396 4.74048 18 ft 15 kts 182°
2026-05-06 19:22 52.30299 4.74012 18 ft 14 kts 205°
2026-05-06 19:23 52.30240 4.73946 18 ft 4 kts 218°
2026-05-06 19:23 52.30239 4.73946 18 ft 0 kts 218°
2026-05-06 19:24 52.30238 4.73944 18 ft 1 kts 218°
2026-05-06 19:24 52.30212 4.73911 18 ft 9 kts 219°
2026-05-06 19:24 52.30194 4.73786 18 ft 15 kts 298°
2026-05-06 19:24 52.30298 4.73743 18 ft 18 kts
2026-05-06 19:25 52.30587 4.73770 18 ft 81 kts
2026-05-06 19:25 52.31416 4.73846 18 ft 154 kts
2026-05-06 19:25 52.32627 4.73955 203 ft 190 kts
2026-05-06 19:25 52.33949 4.74088 978 ft 191 kts
2026-05-06 19:26 52.35230 4.74737 1655 ft 192 kts 26°
2026-05-06 19:26 52.36413 4.75731 2191 ft 195 kts 28°
2026-05-06 19:26 52.37578 4.76912 2601 ft 203 kts 39°
2026-05-06 19:26 52.38626 4.78528 2969 ft 212 kts 43°
2026-05-06 19:27 52.39709 4.80257 3285 ft 222 kts 44°
2026-05-06 19:27 52.40828 4.82080 3588 ft 231 kts 44°
2026-05-06 19:27 52.41937 4.84121 3769 ft 251 kts 56°
2026-05-06 19:27 52.42403 4.86930 4190 ft 263 kts 85°
2026-05-06 19:28 52.42416 4.89935 4886 ft 265 kts 89°
2026-05-06 19:28 52.42410 4.92958 5593 ft 267 kts 89°
2026-05-06 19:28 52.42413 4.96010 6299 ft 269 kts 89°
2026-05-06 19:28 52.42010 4.99024 6850 ft 278 kts 115°
2026-05-06 19:29 52.40739 5.01393 7489 ft 280 kts 143°
2026-05-06 19:29 52.39106 5.03108 8209 ft 280 kts 148°
2026-05-06 19:29 52.37452 5.04835 8771 ft 285 kts 147°
2026-05-06 19:29 52.35787 5.06659 9325 ft 290 kts 146°
2026-05-06 19:30 52.34118 5.08549 9893 ft 294 kts 145°
2026-05-06 19:30 52.32586 5.10771 10324 ft 304 kts 134°
2026-05-06 19:30 52.31130 5.13385 10608 ft 319 kts 132°
2026-05-06 19:30 52.29625 5.16159 10873 ft 334 kts 132°
2026-05-06 19:31 52.28047 5.19061 11135 ft 349 kts 132°
2026-05-06 19:31 52.26386 5.22090 11374 ft 365 kts 132°
2026-05-06 19:31 52.23099 5.28520 12072 ft 388 kts 126°
2026-05-06 19:32 52.21461 5.32316 12650 ft 394 kts 125°
2026-05-06 19:32 52.19893 5.35998 13248 ft 398 kts 125°
2026-05-06 19:32 52.18295 5.39726 13881 ft 401 kts 125°
2026-05-06 19:32 52.16687 5.43450 14469 ft 404 kts 126°
2026-05-06 19:33 52.15054 5.47214 15054 ft 408 kts 126°
2026-05-06 19:33 52.13458 5.50878 15614 ft 411 kts 126°
2026-05-06 19:33 52.11747 5.54795 16199 ft 414 kts 127°
2026-05-06 19:33 52.10129 5.58489 16758 ft 416 kts 127°
2026-05-06 19:34 52.08389 5.62451 17339 ft 418 kts 127°
2026-05-06 19:34 52.06645 5.66256 17899 ft 420 kts 130°
2026-05-06 19:34 52.04789 5.69940 18432 ft 422 kts 131°
2026-05-06 19:34 52.02887 5.73583 18920 ft 425 kts 132°
2026-05-06 19:35 52.00916 5.77294 19405 ft 429 kts 133°
2026-05-06 19:35 51.99007 5.80860 19882 ft 431 kts 133°
2026-05-06 19:35 51.97036 5.84536 20369 ft 434 kts 133°
2026-05-06 19:35 51.95053 5.88238 20872 ft 435 kts 133°
2026-05-06 19:36 51.93078 5.91931 21366 ft 437 kts 133°
2026-05-06 19:36 51.91045 5.95728 21834 ft 439 kts 133°
2026-05-06 19:36 51.89034 5.99475 22248 ft 442 kts 133°
2026-05-06 19:36 51.87003 6.03246 22655 ft 446 kts 133°
2026-05-06 19:37 51.84906 6.07119 23113 ft 447 kts 133°
2026-05-06 19:37 51.82902 6.10809 23625 ft 447 kts 133°
2026-05-06 19:37 51.80910 6.14469 24060 ft 449 kts 133°
2026-05-06 19:37 51.78834 6.18274 24435 ft 452 kts 133°
2026-05-06 19:38 51.76750 6.22088 24769 ft 455 kts 134°
2026-05-06 19:38 51.74657 6.25908 25077 ft 459 kts 134°
2026-05-06 19:38 51.72520 6.29805 25445 ft 461 kts 134°
2026-05-06 19:38 51.70387 6.33689 25847 ft 463 kts 134°
2026-05-06 19:39 51.68251 6.37573 26275 ft 463 kts 134°
2026-05-06 19:39 51.66113 6.41455 26669 ft 464 kts 134°
2026-05-06 19:39 51.63974 6.45336 26967 ft 467 kts 134°
2026-05-06 19:39 51.61807 6.49260 27205 ft 471 kts 134°
2026-05-06 19:40 51.59619 6.53215 27490 ft 474 kts 134°
2026-05-06 19:40 51.57637 6.56791 27772 ft 476 kts 134°
2026-05-06 19:40 51.55431 6.60767 28133 ft 477 kts 134°
2026-05-06 19:40 51.53217 6.64753 28462 ft 478 kts 134°
2026-05-06 19:41 51.51027 6.68689 28748 ft 480 kts 134°
2026-05-06 19:41 51.49395 6.71616 28935 ft 482 kts 134°
2026-05-06 19:41 51.47081 6.75764 29212 ft 485 kts 134°
2026-05-06 19:41 51.44824 6.79802 29470 ft 487 kts 134°
2026-05-06 19:42 51.42526 6.83521 29719 ft 487 kts 141°
2026-05-06 19:42 51.39887 6.86912 30023 ft 487 kts 145°
2026-05-06 19:42 51.37155 6.90134 30283 ft 488 kts 147°
2026-05-06 19:42 51.34512 6.93103 30515 ft 491 kts 148°
2026-05-06 19:43 51.31665 6.96162 30767 ft 493 kts 149°
2026-05-06 19:43 51.28673 6.99267 31095 ft 494 kts 150°
2026-05-06 19:43 51.25899 7.02090 31435 ft 494 kts 150°
2026-05-06 19:43 51.23016 7.04995 31783 ft 494 kts 150°
2026-05-06 19:44 51.20067 7.07950 32142 ft 494 kts 150°
2026-05-06 19:44 51.17159 7.10858 32500 ft 494 kts 150°
2026-05-06 19:44 51.14242 7.13771 32846 ft 494 kts 150°
2026-05-06 19:44 51.11407 7.16599 33182 ft 495 kts 150°
2026-05-06 19:45 51.08417 7.19578 33541 ft 495 kts 150°
2026-05-06 19:45 51.05525 7.22457 33892 ft 494 kts 150°
2026-05-06 19:45 51.02614 7.25350 34228 ft 494 kts 150°
2026-05-06 19:45 50.99699 7.28243 34559 ft 494 kts 150°
2026-05-06 19:46 50.96922 7.30995 34775 ft 495 kts 150°
2026-05-06 19:46 50.94000 7.33899 34849 ft 496 kts 150°